STARLINK-35059 (65454 NORAD) Tracking and Keplerian Element Data

This shows tracking and keplerian element data for the satellite.

Feedback or suggestion? Click here.




ElementValue
Catalog65454
NameSTARLINK-35059
Epoch Orbit1776
Epoch Day354.20476173
Epoch Year2025
RAAN207.251
Inclination97.603
Eccentricity0.0004269
Argument of Perigee66.3927
Mean Anonmoly293.7745
Mean Motion15.00451162
Decay Rate2.052E-05
L11 65454U 25194W 25354.20476173 .00002052 00000+0 16773-3 0 9999
L22 65454 97.6030 207.2510 0004269 66.3927 293.7745 15.00451162 17765



Live tracking and technical data element details for STARLINK-35059 (NORAD 65454). STARLINK-35059 can be tracked NOW for your location showing map with azimuth and elevation plus other details from your city location.







IsCatalogInMostPopularTable: catalog: 65454, numindb: 6
Update: records affected: 1



GetName: 65454 STARLINK-35059

Hit Count: updated at: Mon, 20 Apr 2026 10:05:14 GMT